Time,TemperatureF,DewpointF,PressureIn,WindDirection,WindDirectionDegrees,WindSpeedMPH,WindSpeedGustMPH,Humidity,HourlyPrecipIn,Conditions,Clouds,dailyrainin,SoftwareType,DateUTC
2013-03-08 00:01:00,21.0,16.0,-100.00,SE,145,6.0,11.0,79,0.00,,,0.00,,2013-03-08 06:01:00,
2013-03-08 00:11:00,21.0,16.0,-100.00,SE,140,6.0,9.0,80,0.00,,,0.00,,2013-03-08 06:11:00,
2013-03-08 00:21:00,20.0,16.0,-100.00,SSE,150,6.0,9.0,80,0.00,,,0.00,,2013-03-08 06:21:00,
2013-03-08 00:32:00,20.0,16.0,-100.00,SE,135,6.0,10.0,81,0.00,,,0.00,,2013-03-08 06:32:00,
2013-03-08 00:42:00,20.0,16.0,-100.00,SE,145,6.0,9.0,81,0.00,,,0.00,,2013-03-08 06:42:00,
2013-03-08 00:51:00,20.0,16.0,-100.00,SSE,155,4.0,8.0,82,0.00,,,0.00,,2013-03-08 06:51:00,
2013-03-08 01:01:00,19.0,16.0,-100.00,SE,145,6.0,8.0,82,0.00,,,0.00,,2013-03-08 07:01:00,
2013-03-08 01:11:00,19.0,16.0,-100.00,SSE,150,6.0,9.0,83,0.00,,,0.00,,2013-03-08 07:11:00,
2013-03-08 01:21:00,19.0,14.0,-100.00,SE,140,6.0,8.0,83,0.00,,,0.00,,2013-03-08 07:21:00,
2013-03-08 01:31:00,19.0,14.0,-100.00,SE,140,6.0,8.0,84,0.00,,,0.00,,2013-03-08 07:31:00,
2013-03-08 01:41:00,18.0,14.0,-100.00,SSE,155,6.0,9.0,85,0.00,,,0.00,,2013-03-08 07:41:00,
2013-03-08 01:51:00,18.0,14.0,-100.00,SE,145,4.0,8.0,86,0.00,,,0.00,,2013-03-08 07:51:00,
2013-03-08 02:01:00,18.0,14.0,-100.00,SSE,150,6.0,7.0,86,0.00,,,0.00,,2013-03-08 08:01:00,
2013-03-08 02:11:00,18.0,14.0,-100.00,SE,145,6.0,8.0,87,0.00,,,0.00,,2013-03-08 08:11:00,
2013-03-08 02:21:00,18.0,14.0,-100.00,SE,130,6.0,7.0,87,0.00,,,0.00,,2013-03-08 08:21:00,
2013-03-08 02:31:00,18.0,14.0,-100.00,SE,140,5.0,7.0,88,0.00,,,0.00,,2013-03-08 08:31:00,
2013-03-08 02:41:00,17.0,14.0,-100.00,SE,140,6.0,7.0,88,0.00,,,0.00,,2013-03-08 08:41:00,
2013-03-08 02:52:00,17.0,14.0,-100.00,SE,140,6.0,9.0,89,0.00,,,0.00,,2013-03-08 08:52:00,
2013-03-08 03:03:00,17.0,14.0,-100.00,SE,140,6.0,7.0,90,0.00,,,0.00,,2013-03-08 09:03:00,
2013-03-08 03:11:00,17.0,14.0,-100.00,SE,135,4.0,7.0,90,0.00,,,0.00,,2013-03-08 09:11:00,
2013-03-08 03:21:00,17.0,14.0,-100.00,SE,135,4.0,7.0,91,0.00,,,0.00,,2013-03-08 09:21:00,
2013-03-08 03:32:00,16.0,14.0,-100.00,SE,145,5.0,7.0,91,0.00,,,0.00,,2013-03-08 09:32:00,
2013-03-08 03:42:00,16.0,14.0,-100.00,SE,140,6.0,7.0,91,0.00,,,0.00,,2013-03-08 09:42:00,
2013-03-08 03:52:00,16.0,14.0,-100.00,SSE,155,5.0,7.0,92,0.00,,,0.00,,2013-03-08 09:52:00,
2013-03-08 04:01:00,16.0,14.0,-100.00,SE,145,4.0,7.0,92,0.00,,,0.00,,2013-03-08 10:01:00,
2013-03-08 04:11:00,16.0,14.0,-100.00,SSE,155,4.0,7.0,92,0.00,,,0.00,,2013-03-08 10:11:00,
2013-03-08 04:21:00,15.0,14.0,-100.00,SE,145,4.0,6.0,93,0.00,,,0.00,,2013-03-08 10:21:00,
2013-03-08 04:32:00,15.0,14.0,-100.00,SSE,160,4.0,6.0,93,0.00,,,0.00,,2013-03-08 10:32:00,
2013-03-08 04:41:00,15.0,14.0,-100.00,SE,140,5.0,6.0,94,0.00,,,0.00,,2013-03-08 10:41:00,
2013-03-08 04:51:00,15.0,14.0,-100.00,SSE,155,4.0,7.0,94,0.00,,,0.00,,2013-03-08 10:51:00,
2013-03-08 05:01:00,15.0,14.0,-100.00,SE,145,4.0,6.0,94,0.00,,,0.00,,2013-03-08 11:01:00,
2013-03-08 05:11:00,15.0,14.0,-100.00,SE,145,4.0,7.0,95,0.00,,,0.00,,2013-03-08 11:11:00,
2013-03-08 05:21:00,15.0,14.0,-100.00,SE,140,4.0,6.0,95,0.00,,,0.00,,2013-03-08 11:21:00,
2013-03-08 05:32:00,14.0,14.0,-100.00,SSE,150,4.0,6.0,95,0.00,,,0.00,,2013-03-08 11:32:00,
2013-03-08 05:41:00,14.0,14.0,-100.00,SSE,160,4.0,6.0,95,0.00,,,0.00,,2013-03-08 11:41:00,
2013-03-08 05:52:00,13.0,12.0,-100.00,SSE,165,3.0,6.0,95,0.00,,,0.00,,2013-03-08 11:52:00,
2013-03-08 06:01:00,12.0,10.0,-100.00,SSE,155,3.0,4.0,95,0.00,,,0.00,,2013-03-08 12:01:00,
2013-03-08 06:11:00,13.0,12.0,-100.00,SSE,150,4.0,5.0,96,0.00,,,0.00,,2013-03-08 12:11:00,
2013-03-08 06:22:00,13.0,12.0,-100.00,SE,140,3.0,5.0,96,0.00,,,0.00,,2013-03-08 12:22:00,
2013-03-08 06:32:00,14.0,12.0,-100.00,SE,145,3.0,4.0,96,0.00,,,0.00,,2013-03-08 12:32:00,
2013-03-08 06:42:00,14.0,12.0,-100.00,SE,140,4.0,5.0,96,0.00,,,0.00,,2013-03-08 12:42:00,
2013-03-08 06:52:00,14.0,12.0,-100.00,SE,140,5.0,6.0,96,0.00,,,0.00,,2013-03-08 12:52:00,
2013-03-08 07:01:00,14.0,12.0,-100.00,SSE,150,4.0,6.0,96,0.00,,,0.00,,2013-03-08 13:01:00,
2013-03-08 07:11:00,14.0,12.0,-100.00,SE,140,4.0,6.0,96,0.00,,,0.00,,2013-03-08 13:11:00,
2013-03-08 07:21:00,14.0,12.0,-100.00,SE,145,4.0,6.0,96,0.00,,,0.00,,2013-03-08 13:21:00,
2013-03-08 07:32:00,14.0,14.0,-100.00,SE,125,2.0,5.0,96,0.00,,,0.00,,2013-03-08 13:32:00,
2013-03-08 07:42:00,14.0,14.0,-100.00,SE,130,3.0,5.0,96,0.00,,,0.00,,2013-03-08 13:42:00,
2013-03-08 07:52:00,15.0,14.0,-100.00,SE,130,3.0,5.0,96,0.00,,,0.00,,2013-03-08 13:52:00,
2013-03-08 08:02:00,16.0,14.0,-100.00,ESE,105,3.0,4.0,96,0.00,,,0.00,,2013-03-08 14:02:00,
2013-03-08 08:11:00,16.0,16.0,-100.00,SE,125,4.0,4.0,96,0.00,,,0.00,,2013-03-08 14:11:00,
2013-03-08 08:22:00,16.0,14.0,-100.00,SE,140,4.0,6.0,96,0.00,,,0.00,,2013-03-08 14:22:00,
2013-03-08 08:32:00,16.0,16.0,-100.00,SSE,155,1.0,4.0,96,0.00,,,0.00,,2013-03-08 14:32:00,
2013-03-08 08:42:00,17.0,16.0,-100.00,South,175,2.0,4.0,96,0.00,,,0.00,,2013-03-08 14:42:00,
2013-03-08 08:52:00,18.0,18.0,-100.00,SE,145,2.0,5.0,96,0.00,,,0.00,,2013-03-08 14:52:00,
2013-03-08 09:03:00,18.0,18.0,-100.00,SE,140,4.0,6.0,96,0.00,,,0.00,,2013-03-08 15:03:00,
2013-03-08 09:11:00,18.0,18.0,-100.00,SE,145,4.0,6.0,96,0.00,,,0.00,,2013-03-08 15:11:00,
2013-03-08 09:22:00,21.0,19.0,-100.00,South,175,1.0,6.0,96,0.00,,,0.00,,2013-03-08 15:22:00,
2013-03-08 09:32:00,21.0,19.0,-100.00,ESE,115,3.0,5.0,96,0.00,,,0.00,,2013-03-08 15:32:00,
2013-03-08 09:42:00,22.0,21.0,-100.00,ESE,120,3.0,4.0,95,0.00,,,0.00,,2013-03-08 15:42:00,
2013-03-08 09:52:00,22.0,21.0,-100.00,SE,140,4.0,6.0,93,0.00,,,0.00,,2013-03-08 15:52:00,
2013-03-08 10:01:00,22.0,19.0,-100.00,ESE,120,4.0,6.0,91,0.00,,,0.00,,2013-03-08 16:01:00,
2013-03-08 10:11:00,23.0,19.0,-100.00,ESE,115,4.0,6.0,89,0.00,,,0.00,,2013-03-08 16:11:00,
2013-03-08 10:21:00,25.0,21.0,-100.00,East,100,3.0,4.0,87,0.00,,,0.00,,2013-03-08 16:21:00,
2013-03-08 10:32:00,26.0,21.0,-100.00,ESE,115,2.0,5.0,84,0.00,,,0.00,,2013-03-08 16:32:00,
2013-03-08 10:42:00,27.0,23.0,-100.00,East,85,3.0,4.0,81,0.00,,,0.00,,2013-03-08 16:42:00,
2013-03-08 10:52:00,27.0,21.0,-100.00,East,85,4.0,6.0,79,0.00,,,0.00,,2013-03-08 16:52:00,
2013-03-08 11:02:00,27.0,21.0,-100.00,ENE,75,2.0,5.0,77,0.00,,,0.00,,2013-03-08 17:02:00,
2013-03-08 11:11:00,28.0,21.0,-100.00,ESE,105,4.0,6.0,76,0.00,,,0.00,,2013-03-08 17:11:00,
2013-03-08 11:21:00,29.0,21.0,-100.00,SE,145,2.0,4.0,73,0.00,,,0.00,,2013-03-08 17:21:00,
2013-03-08 11:32:00,27.0,19.0,-100.00,SE,125,6.0,7.0,73,0.00,,,0.00,,2013-03-08 17:32:00,
2013-03-08 11:41:00,29.0,21.0,-100.00,ESE,120,4.0,6.0,73,0.00,,,0.00,,2013-03-08 17:41:00,
2013-03-08 11:52:00,30.0,21.0,-100.00,East,95,4.0,7.0,72,0.00,,,0.00,,2013-03-08 17:52:00,
2013-03-08 12:02:00,29.0,21.0,-100.00,East,90,5.0,7.0,71,0.00,,,0.00,,2013-03-08 18:02:00,
2013-03-08 12:11:00,31.0,21.0,-100.00,East,85,5.0,6.0,69,0.00,,,0.00,,2013-03-08 18:11:00,
2013-03-08 12:21:00,32.0,23.0,-100.00,East,90,3.0,6.0,68,0.00,,,0.00,,2013-03-08 18:21:00,
2013-03-08 12:32:00,33.0,23.0,-100.00,East,90,4.0,6.0,66,0.00,,,0.00,,2013-03-08 18:32:00,
2013-03-08 12:42:00,33.0,23.0,-100.00,East,90,4.0,6.0,65,0.00,,,0.00,,2013-03-08 18:42:00,
2013-03-08 12:51:00,33.0,21.0,-100.00,ESE,105,3.0,6.0,64,0.00,,,0.00,,2013-03-08 18:51:00,
2013-03-08 13:01:00,34.0,23.0,-100.00,ESE,115,2.0,6.0,63,0.00,,,0.00,,2013-03-08 19:01:00,
2013-03-08 13:11:00,34.0,23.0,-100.00,ENE,75,4.0,6.0,62,0.00,,,0.00,,2013-03-08 19:11:00,
2013-03-08 13:21:00,32.0,21.0,-100.00,SE,125,6.0,8.0,63,0.00,,,0.00,,2013-03-08 19:21:00,
2013-03-08 13:32:00,31.0,21.0,-100.00,ESE,115,7.0,9.0,65,0.00,,,0.00,,2013-03-08 19:32:00,
2013-03-08 13:41:00,32.0,23.0,-100.00,ESE,120,6.0,9.0,67,0.00,,,0.00,,2013-03-08 19:41:00,
2013-03-08 13:51:00,33.0,23.0,-100.00,SE,130,5.0,9.0,67,0.00,,,0.00,,2013-03-08 19:51:00,
2013-03-08 14:01:00,32.0,23.0,-100.00,ESE,105,6.0,9.0,68,0.00,,,0.00,,2013-03-08 20:01:00,
2013-03-08 14:11:00,31.0,23.0,-100.00,ESE,120,6.0,9.0,69,0.00,,,0.00,,2013-03-08 20:11:00,
2013-03-08 14:21:00,32.0,23.0,-100.00,ESE,105,7.0,9.0,69,0.00,,,0.00,,2013-03-08 20:21:00,
2013-03-08 14:32:00,33.0,23.0,-100.00,East,100,7.0,10.0,69,0.00,,,0.00,,2013-03-08 20:32:00,
2013-03-08 14:42:00,33.0,25.0,-100.00,East,100,6.0,11.0,68,0.00,,,0.00,,2013-03-08 20:42:00,
2013-03-08 14:52:00,34.0,25.0,-100.00,East,100,6.0,9.0,67,0.00,,,0.00,,2013-03-08 20:52:00,
2013-03-08 15:02:00,34.0,23.0,-100.00,ESE,105,6.0,9.0,67,0.00,,,0.00,,2013-03-08 21:02:00,
2013-03-08 15:11:00,34.0,23.0,-100.00,ESE,115,6.0,9.0,66,0.00,,,0.00,,2013-03-08 21:11:00,
2013-03-08 15:21:00,34.0,23.0,-100.00,ESE,105,3.0,8.0,65,0.00,,,0.00,,2013-03-08 21:21:00,
2013-03-08 15:32:00,35.0,25.0,-100.00,East,80,4.0,7.0,64,0.00,,,0.00,,2013-03-08 21:32:00,
2013-03-08 15:42:00,34.0,23.0,-100.00,East,100,6.0,8.0,64,0.00,,,0.00,,2013-03-08 21:42:00,
2013-03-08 15:51:00,34.0,23.0,-100.00,East,85,4.0,7.0,65,0.00,,,0.00,,2013-03-08 21:51:00,
2013-03-08 16:01:00,33.0,23.0,-100.00,East,95,3.0,7.0,65,0.00,,,0.00,,2013-03-08 22:01:00,
2013-03-08 16:11:00,33.0,23.0,-100.00,East,100,6.0,7.0,66,0.00,,,0.00,,2013-03-08 22:11:00,
2013-03-08 16:22:00,33.0,23.0,-100.00,ESE,120,4.0,7.0,67,0.00,,,0.00,,2013-03-08 22:22:00,
2013-03-08 16:32:00,34.0,23.0,-100.00,ESE,110,5.0,7.0,66,0.00,,,0.00,,2013-03-08 22:32:00,
2013-03-08 16:42:00,33.0,23.0,-100.00,East,90,6.0,7.0,67,0.00,,,0.00,,2013-03-08 22:42:00,
2013-03-08 16:52:00,33.0,23.0,-100.00,East,90,6.0,9.0,67,0.00,,,0.00,,2013-03-08 22:52:00,
2013-03-08 17:01:00,33.0,23.0,-100.00,East,95,7.0,9.0,68,0.00,,,0.00,,2013-03-08 23:01:00,
2013-03-08 17:11:00,33.0,23.0,-100.00,East,95,6.0,9.0,69,0.00,,,0.00,,2013-03-08 23:11:00,
2013-03-08 17:21:00,33.0,25.0,-100.00,East,95,6.0,7.0,70,0.00,,,0.00,,2013-03-08 23:21:00,
2013-03-08 17:32:00,32.0,23.0,-100.00,East,100,6.0,9.0,71,0.00,,,0.00,,2013-03-08 23:32:00,
2013-03-08 17:42:00,33.0,25.0,-100.00,East,95,4.0,8.0,71,0.00,,,0.00,,2013-03-08 23:42:00,
2013-03-08 17:52:00,32.0,23.0,-100.00,ESE,105,5.0,8.0,71,0.00,,,0.00,,2013-03-08 23:52:00,
2013-03-08 18:01:00,32.0,23.0,-100.00,East,100,6.0,7.0,72,0.00,,,0.00,,2013-03-09 00:01:00,
2013-03-08 18:11:00,31.0,23.0,-100.00,ESE,120,4.0,7.0,72,0.00,,,0.00,,2013-03-09 00:11:00,
2013-03-08 18:22:00,31.0,23.0,-100.00,East,100,4.0,6.0,73,0.00,,,0.00,,2013-03-09 00:22:00,
2013-03-08 18:32:00,31.0,23.0,-100.00,East,90,6.0,7.0,73,0.00,,,0.00,,2013-03-09 00:32:00,
2013-03-08 18:42:00,31.0,23.0,-100.00,East,95,7.0,9.0,74,0.00,,,0.00,,2013-03-09 00:42:00,
2013-03-08 18:52:00,31.0,23.0,-100.00,East,90,5.0,7.0,75,0.00,,,0.00,,2013-03-09 00:52:00,
2013-03-08 19:01:00,31.0,23.0,-100.00,East,100,6.0,8.0,75,0.00,,,0.00,,2013-03-09 01:01:00,
2013-03-08 19:12:00,31.0,25.0,-100.00,East,95,7.0,8.0,76,0.00,,,0.00,,2013-03-09 01:12:00,
2013-03-08 19:21:00,31.0,25.0,-100.00,ESE,105,6.0,9.0,76,0.00,,,0.00,,2013-03-09 01:21:00,
2013-03-08 19:32:00,30.0,25.0,-100.00,East,95,7.0,9.0,77,0.00,,,0.00,,2013-03-09 01:32:00,
2013-03-08 19:41:00,30.0,25.0,-100.00,East,90,6.0,9.0,77,0.00,,,0.00,,2013-03-09 01:41:00,
2013-03-08 19:51:00,30.0,25.0,-100.00,East,90,7.0,10.0,77,0.00,,,0.00,,2013-03-09 01:51:00,
2013-03-08 20:01:00,31.0,25.0,-100.00,East,80,6.0,9.0,77,0.00,,,0.00,,2013-03-09 02:01:00,
2013-03-08 20:11:00,30.0,25.0,-100.00,East,85,6.0,9.0,78,0.00,,,0.00,,2013-03-09 02:11:00,
2013-03-08 20:21:00,30.0,25.0,-100.00,East,90,5.0,8.0,78,0.00,,,0.00,,2013-03-09 02:21:00,
2013-03-08 20:31:00,30.0,25.0,-100.00,East,85,7.0,10.0,78,0.00,,,0.00,,2013-03-09 02:31:00,
2013-03-08 20:41:00,30.0,25.0,-100.00,East,90,9.0,13.0,79,0.00,,,0.00,,2013-03-09 02:41:00,
2013-03-08 20:51:00,30.0,25.0,-100.00,East,85,9.0,12.0,79,0.00,,,0.00,,2013-03-09 02:51:00,
2013-03-08 21:01:00,31.0,25.0,-100.00,East,90,9.0,12.0,79,0.00,,,0.00,,2013-03-09 03:01:00,
2013-03-08 21:11:00,30.0,25.0,-100.00,East,85,9.0,12.0,79,0.00,,,0.00,,2013-03-09 03:11:00,
2013-03-08 21:21:00,30.0,25.0,-100.00,East,100,7.0,12.0,79,0.00,,,0.00,,2013-03-09 03:21:00,
2013-03-08 21:31:00,30.0,25.0,-100.00,East,95,8.0,11.0,79,0.00,,,0.00,,2013-03-09 03:31:00,
2013-03-08 21:41:00,30.0,25.0,-100.00,East,95,6.0,11.0,80,0.00,,,0.00,,2013-03-09 03:41:00,
2013-03-08 21:52:00,30.0,25.0,-100.00,ESE,105,6.0,9.0,81,0.00,,,0.00,,2013-03-09 03:52:00,
2013-03-08 22:01:00,30.0,25.0,-100.00,ESE,115,6.0,8.0,81,0.00,,,0.00,,2013-03-09 04:01:00,
2013-03-08 22:11:00,30.0,25.0,-100.00,ESE,110,4.0,8.0,82,0.00,,,0.00,,2013-03-09 04:11:00,
2013-03-08 22:22:00,30.0,25.0,-100.00,East,100,6.0,9.0,83,0.00,,,0.00,,2013-03-09 04:22:00,
2013-03-08 22:31:00,30.0,25.0,-100.00,East,95,6.0,9.0,83,0.00,,,0.00,,2013-03-09 04:31:00,
2013-03-08 22:41:00,30.0,27.0,-100.00,East,95,7.0,9.0,83,0.00,,,0.00,,2013-03-09 04:41:00,
2013-03-08 22:51:00,30.0,27.0,-100.00,East,85,4.0,8.0,84,0.00,,,0.00,,2013-03-09 04:51:00,
2013-03-08 23:02:00,30.0,27.0,-100.00,ESE,110,4.0,7.0,84,0.00,,,0.00,,2013-03-09 05:02:00,
2013-03-08 23:11:00,30.0,27.0,-100.00,East,100,4.0,6.0,84,0.00,,,0.00,,2013-03-09 05:11:00,
2013-03-08 23:21:00,31.0,27.0,-100.00,East,100,5.0,7.0,85,0.00,,,0.00,,2013-03-09 05:21:00,
2013-03-08 23:31:00,30.0,27.0,-100.00,East,90,6.0,7.0,85,0.00,,,0.00,,2013-03-09 05:31:00,
2013-03-08 23:42:00,31.0,27.0,-100.00,East,90,7.0,10.0,86,0.00,,,0.00,,2013-03-09 05:42:00,
2013-03-08 23:52:00,31.0,27.0,-100.00,East,95,7.0,9.0,86,0.00,,,0.00,,2013-03-09 05:52:00,